| time (UTC) | temp F | wind direction | speed knots | gust knots | rain 1hr in | rain 24hr in | rain mn in | humidity % | barometer mb |
| 20260505153014 | 52 | 94 | 2.6 | 7.8 | 0.00 | 0.00 | 0.00 | 65 | 1009.7 |
| 20260505152506 | 52 | 54 | 2.6 | 7.8 | 0.00 | 0.00 | 0.00 | 64 | 1009.8 |
| 20260505152003 | 52 | 69 | 2.6 | 9.6 | 0.00 | 0.00 | 0.00 | 64 | 1009.7 |
| 20260505151516 | 52 | 58 | 3.5 | 11.3 | 0.00 | 0.00 | 0.00 | 63 | 1009.5 |
| 20260505151006 | 52 | 53 | 3.5 | 15.6 | 0.00 | 0.00 | 0.00 | 63 | 1009.6 |
| 20260505150507 | 52 | 352 | 4.3 | 15.6 | 0.00 | 0.00 | 0.00 | 63 | 1009.2 |
| 20260505140504 | 53 | 64 | 4.3 | 9.6 | 0.00 | 0.00 | 0.00 | 60 | 1009.5 |
| 20260505125010 | 53 | 30 | 3.5 | 12.2 | 0.00 | 0.00 | 0.00 | 59 | 1008.1 |
| 20260505124522 | 53 | 90 | 5.2 | 11.3 | 0.00 | 0.00 | 0.00 | 60 | 1008.1 |
| 20260505124010 | 53 | 64 | 5.2 | 11.3 | 0.00 | 0.00 | 0.00 | 61 | 1007.9 |
| 20260505123509 | 53 | 67 | 2.6 | 11.3 | 0.00 | 0.00 | 0.00 | 61 | 1007.9 |
| 20260505123032 | 53 | 59 | 5.2 | 11.3 | 0.00 | 0.00 | 0.00 | 60 | 1007.9 |
| 20260505122509 | 53 | 46 | 5.2 | 11.3 | 0.00 | 0.00 | 0.00 | 60 | 1007.7 |
| 20260505122004 | 54 | 59 | 4.3 | 13.9 | 0.00 | 0.00 | 0.00 | 60 | 1007.6 |
| 20260505121512 | 54 | 37 | 5.2 | 13.9 | 0.00 | 0.00 | 0.00 | 59 | 1007.4 |
| 20260505121005 | 54 | 67 | 4.3 | 13.9 | 0.00 | 0.00 | 0.00 | 61 | 1007.4 |
| 20260505120504 | 54 | 53 | 3.5 | 11.3 | 0.00 | 0.00 | 0.00 | 60 | 1007.3 |
| 20260505120022 | 54 | 43 | 4.3 | 13.0 | 0.00 | 0.00 | 0.00 | 61 | 1007.2 |
| 20260505115504 | 54 | 87 | 3.5 | 13.0 | 0.00 | 0.00 | 0.00 | 60 | 1007.0 |
| 20260505115009 | 54 | 75 | 5.2 | 13.9 | 0.00 | 0.00 | 0.00 | 61 | 1006.7 |
| 20260505114518 | 54 | 63 | 3.5 | 13.9 | 0.00 | 0.00 | 0.00 | 61 | 1006.7 |
| 20260505114006 | 54 | 61 | 2.6 | 13.9 | 0.00 | 0.00 | 0.00 | 61 | 1006.5 |
| 20260505113507 | 54 | 340 | 5.2 | 13.9 | 0.00 | 0.00 | 0.00 | 61 | 1006.4 |
| 20260505113023 | 54 | 67 | 4.3 | 9.6 | 0.00 | 0.00 | 0.00 | 61 | 1006.2 |
| 20260505112509 | 54 | 47 | 3.5 | 9.6 | 0.00 | 0.00 | 0.00 | 61 | 1006.2 |
| 20260505112003 | 54 | 59 | 4.3 | 11.3 | 0.00 | 0.00 | 0.00 | 61 | 1006.2 |
| 20260505111511 | 54 | 65 | 3.5 | 11.3 | 0.00 | 0.00 | 0.00 | 61 | 1006.2 |
| 20260505111004 | 54 | 90 | 3.5 | 10.4 | 0.00 | 0.00 | 0.00 | 61 | 1005.9 |
| 20260505110504 | 54 | 11 | 2.6 | 10.4 | 0.00 | 0.00 | 0.00 | 62 | 1005.9 |
| 20260505102008 | 55 | 113 | 4.3 | 13.9 | 0.00 | 0.00 | 0.00 | 61 | 1005.4 |
| 20260505101546 | 55 | 220 | 5.2 | 13.9 | 0.00 | 0.00 | 0.00 | 62 | 1005.3 |
| 20260505101006 | 55 | 66 | 3.5 | 16.5 | 0.00 | 0.00 | 0.00 | 63 | 1005.3 |
| 20260505100504 | 55 | 58 | 4.3 | 16.5 | 0.00 | 0.00 | 0.00 | 65 | 1005.3 |
| 20260505100021 | 55 | 64 | 3.5 | 13.0 | 0.00 | 0.00 | 0.00 | 66 | 1005.3 |
| 20260505095503 | 55 | 43 | 4.3 | 12.2 | 0.00 | 0.00 | 0.00 | 66 | 1005.2 |
| 20260505095002 | 55 | 59 | 6.1 | 18.2 | 0.00 | 0.00 | 0.00 | 66 | 1005.1 |
| 20260505094509 | 55 | 86 | 7.8 | 18.2 | 0.00 | 0.00 | 0.00 | 66 | 1005.0 |
| 20260505094006 | 55 | 67 | 5.2 | 17.4 | 0.00 | 0.00 | 0.00 | 67 | 1004.8 |
| 20260505093507 | 55 | 82 | 5.2 | 17.4 | 0.00 | 0.00 | 0.00 | 68 | 1004.9 |
| 20260505093021 | 55 | 91 | 4.3 | 14.8 | 0.00 | 0.00 | 0.00 | 68 | 1004.8 |
| 20260505092508 | 55 | 348 | 6.1 | 13.9 | 0.00 | 0.00 | 0.00 | 69 | 1004.8 |
| 20260505092010 | 56 | 57 | 4.3 | 13.9 | 0.00 | 0.00 | 0.00 | 72 | 1004.9 |
| 20260505091520 | 56 | 76 | 7.0 | 13.9 | 0.00 | 0.00 | 0.00 | 71 | 1004.8 |
| 20260505091008 | 56 | 55 | 5.2 | 13.0 | 0.00 | 0.00 | 0.00 | 70 | 1004.9 |
| 20260505090508 | 57 | 67 | 3.5 | 13.0 | 0.00 | 0.00 | 0.00 | 70 | 1004.9 |
| 20260505090023 | 57 | 94 | 4.3 | 12.2 | 0.00 | 0.00 | 0.00 | 69 | 1004.7 |
| 20260505085508 | 57 | 75 | 5.2 | 12.2 | 0.00 | 0.00 | 0.00 | 69 | 1004.6 |
| 20260505085003 | 57 | 34 | 5.2 | 12.2 | 0.00 | 0.00 | 0.00 | 70 | 1004.5 |
| 20260505084508 | 58 | 88 | 5.2 | 12.2 | 0.00 | 0.00 | 0.00 | 70 | 1004.4 |
| 20260505084003 | 58 | 82 | 4.3 | 12.2 | 0.00 | 0.00 | 0.00 | 71 | 1004.3 |
| 20260505083503 | 59 | 57 | 3.5 | 10.4 | 0.00 | 0.00 | 0.00 | 72 | 1004.3 |
| 20260505083018 | 59 | 47 | 4.3 | 9.6 | 0.00 | 0.00 | 0.00 | 75 | 1004.2 |
| 20260505082508 | 60 | 69 | 3.5 | 9.6 | 0.00 | 0.00 | 0.00 | 77 | 1004.1 |
| 20260505082007 | 60 | 14 | 3.5 | 10.4 | 0.00 | 0.00 | 0.00 | 77 | 1004.0 |
| 20260505081520 | 60 | 65 | 3.5 | 12.2 | 0.00 | 0.00 | 0.00 | 77 | 1004.1 |
| 20260505081007 | 61 | 72 | 3.5 | 12.2 | 0.00 | 0.00 | 0.00 | 77 | 1003.9 |
| 20260505080509 | 61 | 69 | 3.5 | 11.3 | 0.00 | 0.00 | 0.00 | 76 | 1003.8 |
| 20260505080023 | 62 | 62 | 4.3 | 11.3 | 0.00 | 0.00 | 0.00 | 75 | 1003.7 |
| 20260505075508 | 63 | 79 | 5.2 | 8.7 | 0.00 | 0.00 | 0.00 | 73 | 1003.7 |
| 20260505075011 | 64 | 55 | 3.5 | 8.7 | 0.00 | 0.00 | 0.00 | 71 | 1003.6 |
| 20260505074528 | 64 | 59 | 4.3 | 8.7 | 0.00 | 0.00 | 0.00 | 71 | 1003.5 |
| 20260505074012 | 65 | 67 | 2.6 | 8.7 | 0.00 | 0.00 | 0.00 | 71 | 1003.4 |
| 20260505073504 | 65 | 61 | 3.5 | 9.6 | 0.00 | 0.00 | 0.00 | 71 | 1003.3 |
| 20260505073029 | 66 | 77 | 2.6 | 9.6 | 0.00 | 0.00 | 0.00 | 70 | 1003.4 |
| 20260505072507 | 66 | 65 | 2.6 | 13.0 | 0.00 | 0.00 | 0.00 | 71 | 1003.4 |
| 20260505072004 | 67 | 84 | 5.2 | 13.0 | 0.00 | 0.00 | 0.00 | 74 | 1003.5 |
| 20260505071514 | 67 | 69 | 0.0 | 2.6 | 0.00 | 0.00 | 0.00 | 75 | 1003.3 |
| 20260505071006 | 67 | 53 | 0.0 | 2.6 | 0.00 | 0.00 | 0.00 | 75 | 1003.2 |
| 20260505070512 | 67 | 53 | 0.9 | 2.6 | 0.00 | 0.00 | 0.00 | 74 | 1003.1 |
| 20260505070019 | 67 | 53 | 0.0 | 2.6 | 0.00 | 0.00 | 0.00 | 74 | 1003.1 |
| 20260505065510 | 67 | 53 | 0.9 | 2.6 | 0.00 | 0.00 | 0.00 | 74 | 1003.1 |
| 20260505065007 | 67 | 53 | 0.0 | 0.0 | 0.00 | 0.00 | 0.00 | 74 | 1003.0 |
| 20260505064523 | 67 | 53 | 0.0 | 2.6 | 0.00 | 0.00 | 0.00 | 73 | 1003.1 |
| 20260505064009 | 67 | 53 | 0.0 | 2.6 | 0.00 | 0.00 | 0.00 | 73 | 1003.0 |
| 20260505063508 | 67 | 53 | 0.9 | 5.2 | 0.00 | 0.00 | 0.00 | 73 | 1003.0 |
| 20260505063026 | 67 | 336 | 0.0 | 5.2 | 0.00 | 0.00 | 0.00 | 73 | 1003.1 |
| 20260505062512 | 67 | 88 | 0.0 | 2.6 | 0.00 | 0.00 | 0.00 | 73 | 1002.8 |
| 20260505062006 | 67 | 88 | 0.9 | 2.6 | 0.00 | 0.00 | 0.00 | 72 | 1002.7 |
| 20260505061520 | 68 | 88 | 0.9 | 2.6 | 0.00 | 0.00 | 0.00 | 72 | 1002.7 |
| 20260505061003 | 68 | 88 | 0.0 | 0.9 | 0.00 | 0.00 | 0.00 | 73 | 1002.6 |
| 20260505060508 | 68 | 88 | 0.0 | 0.9 | 0.00 | 0.00 | 0.00 | 72 | 1002.4 |
| 20260505060018 | 69 | 88 | 0.0 | 1.7 | 0.00 | 0.00 | 0.00 | 71 | 1002.4 |
| 20260505055509 | 69 | 88 | 0.0 | 2.6 | 0.00 | 0.00 | 0.00 | 71 | 1002.5 |
| 20260505055013 | 69 | 46 | 0.0 | 2.6 | 0.00 | 0.00 | 0.00 | 71 | 1002.4 |
| 20260505054524 | 69 | 46 | 0.0 | 4.3 | 0.00 | 0.00 | 0.00 | 71 | 1002.5 |
| 20260505054010 | 69 | 55 | 0.0 | 4.3 | 0.00 | 0.00 | 0.00 | 71 | 1002.3 |
| 20260505053510 | 70 | 23 | 0.0 | 5.2 | 0.00 | 0.00 | 0.00 | 70 | 1002.2 |
| 20260505053036 | 70 | 327 | 0.0 | 5.2 | 0.00 | 0.00 | 0.00 | 69 | 1002.1 |
| 20260505052507 | 70 | 278 | 0.9 | 7.0 | 0.00 | 0.00 | 0.00 | 68 | 1001.9 |
| 20260505052013 | 70 | 283 | 1.7 | 7.0 | 0.00 | 0.00 | 0.00 | 67 | 1001.8 |
| 20260505051537 | 70 | 248 | 1.7 | 6.1 | 0.00 | 0.00 | 0.00 | 68 | 1001.6 |
| 20260505051007 | 70 | 248 | 1.7 | 6.1 | 0.00 | 0.00 | 0.00 | 68 | 1001.6 |
| 20260505050504 | 69 | 245 | 1.7 | 8.7 | 0.00 | 0.00 | 0.00 | 70 | 1001.5 |
| 20260505041527 | 69 | 275 | 0.0 | 1.7 | 0.00 | 0.00 | 0.00 | 73 | 1001.7 |
| 20260505041015 | 69 | 275 | 0.0 | 3.5 | 0.00 | 0.00 | 0.00 | 73 | 1001.7 |
| 20260505040512 | 70 | 270 | 0.0 | 3.5 | 0.00 | 0.00 | 0.00 | 72 | 1001.7 |
| 20260505040029 | 70 | 200 | 0.0 | 2.6 | 0.00 | 0.00 | 0.00 | 72 | 1002.0 |
| 20260505035515 | 70 | 279 | 0.0 | 0.0 | 0.00 | 0.00 | 0.00 | 71 | 1002.1 |
| 20260505035007 | 71 | 279 | 0.0 | 0.0 | 0.00 | 0.00 | 0.00 | 70 | 1002.0 |
| 20260505034519 | 71 | 279 | 0.0 | 0.0 | 0.00 | 0.00 | 0.00 | 70 | 1001.8 |
| 20260505034015 | 71 | 279 | 0.0 | 0.0 | 0.00 | 0.00 | 0.00 | 68 | 1001.8 |
| 20260505033506 | 72 | 279 | 0.0 | 2.6 | 0.00 | 0.00 | 0.00 | 68 | 1001.8 |
| 20260505033020 | 72 | 265 | 0.0 | 3.5 | 0.00 | 0.00 | 0.00 | 68 | 1002.1 |
| 20260505032508 | 72 | 304 | 0.0 | 3.5 | 0.00 | 0.00 | 0.00 | 68 | 1001.9 |
| 20260505032008 | 72 | 280 | 0.0 | 5.2 | 0.00 | 0.00 | 0.00 | 67 | 1002.0 |
| 20260505031531 | 72 | 293 | 1.7 | 5.2 | 0.00 | 0.00 | 0.00 | 67 | 1002.1 |
| 20260505031006 | 72 | 286 | 0.9 | 5.2 | 0.00 | 0.00 | 0.00 | 67 | 1002.1 |
| 20260505030505 | 72 | 263 | 0.0 | 5.2 | 0.00 | 0.00 | 0.00 | 66 | 1002.1 |
| 20260505030006 | 72 | 307 | 0.0 | 3.5 | 0.00 | 0.00 | 0.00 | 66 | 1002.1 |
| 20260505025503 | 72 | 262 | 0.0 | 3.5 | 0.00 | 0.00 | 0.00 | 66 | 1002.1 |
| 20260505025004 | 73 | 173 | 0.0 | 1.7 | 0.00 | 0.00 | 0.00 | 66 | 1002.3 |
| 20260505024507 | 73 | 285 | 0.0 | 1.7 | 0.00 | 0.00 | 0.00 | 65 | 1002.3 |
| 20260505024003 | 73 | 17 | 0.0 | 2.6 | 0.00 | 0.00 | 0.00 | 65 | 1002.1 |
| 20260505023502 | 73 | 315 | 0.0 | 3.5 | 0.00 | 0.00 | 0.00 | 64 | 1002.0 |
| 20260505023011 | 73 | 265 | 0.0 | 3.5 | 0.00 | 0.00 | 0.00 | 63 | 1002.1 |
| 20260505022502 | 73 | 294 | 0.0 | 3.5 | 0.00 | 0.00 | 0.00 | 63 | 1002.2 |
| 20260505022002 | 74 | 266 | 0.0 | 3.5 | 0.00 | 0.00 | 0.00 | 63 | 1002.2 |
| 20260505021504 | 74 | 311 | 0.9 | 3.5 | 0.00 | 0.00 | 0.00 | 62 | 1002.1 |
| 20260505021004 | 74 | 284 | 0.9 | 3.5 | 0.00 | 0.00 | 0.00 | 62 | 1002.2 |
| 20260505020503 | 74 | 253 | 0.9 | 5.2 | 0.00 | 0.00 | 0.00 | 61 | 1002.4 |
| 20260505020004 | 74 | 276 | 0.9 | 5.2 | 0.00 | 0.00 | 0.00 | 61 | 1002.3 |
| 20260505015503 | 74 | 259 | 0.9 | 2.6 | 0.00 | 0.00 | 0.00 | 60 | 1002.2 |
| 20260505015003 | 74 | 286 | 0.0 | 3.5 | 0.00 | 0.00 | 0.00 | 60 | 1001.8 |
| 20260505014505 | 74 | 291 | 0.9 | 3.5 | 0.00 | 0.00 | 0.00 | 59 | 1001.6 |
| 20260505014002 | 74 | 297 | 0.0 | 6.1 | 0.00 | 0.00 | 0.00 | 59 | 1001.7 |
| 20260505013503 | 75 | 254 | 0.9 | 6.1 | 0.00 | 0.00 | 0.00 | 58 | 1001.6 |
| 20260505013006 | 75 | 205 | 0.9 | 5.2 | 0.00 | 0.00 | 0.00 | 57 | 1001.6 |
| 20260505012502 | 75 | 229 | 0.9 | 5.2 | 0.00 | 0.00 | 0.00 | 56 | 1001.5 |
| 20260505012004 | 75 | 347 | 0.9 | 6.1 | 0.00 | 0.00 | 0.00 | 56 | 1001.4 |
| 20260505011509 | 75 | 269 | 1.7 | 6.1 | 0.00 | 0.00 | 0.00 | 56 | 1001.3 |
| 20260505011003 | 75 | 276 | 0.0 | 5.2 | 0.00 | 0.00 | 0.00 | 55 | 1001.5 |
| 20260505010502 | 76 | 263 | 0.0 | 5.2 | 0.00 | 0.00 | 0.00 | 55 | 1001.3 |
| 20260505010014 | 76 | 266 | 0.0 | 6.1 | 0.00 | 0.00 | 0.00 | 55 | 1001.2 |
| 20260505005503 | 76 | 274 | 1.7 | 6.1 | 0.00 | 0.00 | 0.00 | 54 | 1001.4 |
| 20260505005004 | 76 | 285 | 0.9 | 6.1 | 0.00 | 0.00 | 0.00 | 54 | 1001.1 |
| 20260505004506 | 77 | 202 | 0.0 | 3.5 | 0.00 | 0.00 | 0.00 | 53 | 1001.2 |
| 20260505004003 | 77 | 300 | 0.9 | 3.5 | 0.00 | 0.00 | 0.00 | 52 | 1001.3 |
| 20260505003502 | 77 | 268 | 0.0 | 5.2 | 0.00 | 0.00 | 0.00 | 52 | 1001.3 |
| 20260505003009 | 78 | 265 | 0.0 | 5.2 | 0.00 | 0.00 | 0.00 | 51 | 1001.3 |
| 20260505002504 | 78 | 265 | 0.9 | 4.3 | 0.00 | 0.00 | 0.00 | 51 | 1001.3 |
| 20260505002004 | 78 | 286 | 0.0 | 4.3 | 0.00 | 0.00 | 0.00 | 51 | 1001.4 |
| 20260505001508 | 78 | 300 | 0.0 | 5.2 | 0.00 | 0.00 | 0.00 | 51 | 1001.4 |
| 20260505001003 | 78 | 252 | 1.7 | 5.2 | 0.00 | 0.00 | 0.00 | 49 | 1001.3 |
| 20260505000505 | 79 | 261 | 0.9 | 5.2 | 0.00 | 0.00 | 0.00 | 49 | 1001.3 |
| 20260505000008 | 79 | 349 | 0.9 | 6.1 | 0.00 | 0.00 | 0.00 | 49 | 1001.3 |
| 20260504235502 | 79 | 182 | 0.9 | 7.0 | 0.00 | 0.00 | 0.00 | 48 | 1001.4 |
| 20260504235003 | 79 | 242 | 1.7 | 7.0 | 0.00 | 0.00 | 0.00 | 48 | 1001.5 |
| 20260504234507 | 79 | 289 | 0.0 | 5.2 | 0.00 | 0.00 | 0.00 | 47 | 1001.6 |
| 20260504234004 | 79 | 190 | 0.0 | 6.1 | 0.00 | 0.00 | 0.00 | 47 | 1001.6 |
| 20260504233503 | 79 | 265 | 2.6 | 11.3 | 0.00 | 0.00 | 0.00 | 46 | 1001.6 |
| 20260504233008 | 80 | 194 | 2.6 | 11.3 | 0.00 | 0.00 | 0.00 | 47 | 1001.7 |
| 20260504232505 | 80 | 232 | 0.9 | 8.7 | 0.00 | 0.00 | 0.00 | 47 | 1001.8 |
| 20260504232008 | 80 | 200 | 3.5 | 8.7 | 0.00 | 0.00 | 0.00 | 45 | 1001.7 |
| 20260504231510 | 80 | 257 | 2.6 | 7.8 | 0.00 | 0.00 | 0.00 | 45 | 1001.7 |
| 20260504231004 | 80 | 215 | 1.7 | 8.7 | 0.00 | 0.00 | 0.00 | 44 | 1001.5 |
| 20260504230504 | 81 | 265 | 0.9 | 8.7 | 0.00 | 0.00 | 0.00 | 43 | 1001.5 |
| 20260504230009 | 81 | 134 | 2.6 | 8.7 | 0.00 | 0.00 | 0.00 | 43 | 1001.7 |
| 20260504225504 | 81 | 232 | 3.5 | 8.7 | 0.00 | 0.00 | 0.00 | 42 | 1001.7 |
| 20260504225005 | 81 | 263 | 1.7 | 8.7 | 0.00 | 0.00 | 0.00 | 43 | 1001.5 |
| 20260504224511 | 81 | 266 | 1.7 | 8.7 | 0.00 | 0.00 | 0.00 | 43 | 1001.6 |
| 20260504224004 | 81 | 288 | 1.7 | 7.8 | 0.00 | 0.00 | 0.00 | 42 | 1001.6 |
| 20260504223503 | 82 | 244 | 1.7 | 9.6 | 0.00 | 0.00 | 0.00 | 42 | 1001.5 |
| 20260504223008 | 82 | 247 | 1.7 | 9.6 | 0.00 | 0.00 | 0.00 | 41 | 1001.7 |
| 20260504222504 | 82 | 142 | 3.5 | 9.6 | 0.00 | 0.00 | 0.00 | 41 | 1001.6 |
| 20260504222003 | 83 | 239 | 0.9 | 10.4 | 0.00 | 0.00 | 0.00 | 41 | 1001.5 |
| 20260504221520 | 83 | 264 | 3.5 | 10.4 | 0.00 | 0.00 | 0.00 | 40 | 1001.6 |
| 20260504221004 | 84 | 221 | 2.6 | 7.8 | 0.00 | 0.00 | 0.00 | 39 | 1001.5 |
| 20260504220504 | 84 | 263 | 1.7 | 13.0 | 0.00 | 0.00 | 0.00 | 40 | 1001.6 |
| 20260504220010 | 84 | 170 | 3.5 | 13.0 | 0.00 | 0.00 | 0.00 | 39 | 1001.8 |
| 20260504215507 | 84 | 246 | 2.6 | 11.3 | 0.00 | 0.00 | 0.00 | 39 | 1001.8 |
| 20260504215009 | 84 | 300 | 2.6 | 11.3 | 0.00 | 0.00 | 0.00 | 40 | 1001.8 |
| 20260504214512 | 84 | 180 | 4.3 | 11.3 | 0.00 | 0.00 | 0.00 | 38 | 1001.9 |
| 20260504214003 | 84 | 270 | 1.7 | 11.3 | 0.00 | 0.00 | 0.00 | 38 | 1001.9 |
| 20260504213503 | 84 | 266 | 3.5 | 10.4 | 0.00 | 0.00 | 0.00 | 40 | 1002.0 |
| 20260504213016 | 84 | 241 | 2.6 | 8.7 | 0.00 | 0.00 | 0.00 | 38 | 1002.0 |
| 20260504212504 | 84 | 275 | 1.7 | 9.6 | 0.00 | 0.00 | 0.00 | 39 | 1002.0 |
| 20260504212005 | 84 | 250 | 3.5 | 9.6 | 0.00 | 0.00 | 0.00 | 38 | 1002.0 |
| 20260504211508 | 84 | 198 | 2.6 | 8.7 | 0.00 | 0.00 | 0.00 | 39 | 1002.1 |
| 20260504211004 | 84 | 44 | 1.7 | 8.7 | 0.00 | 0.00 | 0.00 | 40 | 1002.1 |
| 20260504210504 | 84 | 234 | 3.5 | 8.7 | 0.00 | 0.00 | 0.00 | 39 | 1002.2 |
| 20260504210012 | 84 | 258 | 3.5 | 8.7 | 0.00 | 0.00 | 0.00 | 38 | 1002.3 |
| 20260504205507 | 85 | 258 | 3.5 | 7.8 | 0.00 | 0.00 | 0.00 | 38 | 1002.4 |
| 20260504205003 | 85 | 237 | 2.6 | 9.6 | 0.00 | 0.00 | 0.00 | 37 | 1002.2 |
| 20260504204514 | 86 | 237 | 1.7 | 9.6 | 0.00 | 0.00 | 0.00 | 36 | 1002.4 |
| 20260504204003 | 86 | 214 | 2.6 | 7.8 | 0.00 | 0.00 | 0.00 | 38 | 1002.4 |
| 20260504203506 | 87 | 142 | 3.5 | 7.8 | 0.00 | 0.00 | 0.00 | 35 | 1002.5 |
| 20260504203014 | 87 | 282 | 1.7 | 8.7 | 0.00 | 0.00 | 0.00 | 37 | 1002.5 |
| 20260504202504 | 86 | 146 | 2.6 | 8.7 | 0.00 | 0.00 | 0.00 | 36 | 1002.4 |
| 20260504202005 | 87 | 170 | 1.7 | 7.8 | 0.00 | 0.00 | 0.00 | 36 | 1002.6 |
| 20260504201513 | 87 | 148 | 1.7 | 7.8 | 0.00 | 0.00 | 0.00 | 35 | 1002.7 |
| 20260504201005 | 87 | 243 | 1.7 | 7.8 | 0.00 | 0.00 | 0.00 | 36 | 1002.7 |
| 20260504200509 | 87 | 98 | 0.9 | 6.1 | 0.00 | 0.00 | 0.00 | 35 | 1002.7 |
| 20260504200012 | 86 | 172 | 2.6 | 11.3 | 0.00 | 0.00 | 0.00 | 36 | 1002.8 |
| 20260504195506 | 86 | 163 | 2.6 | 11.3 | 0.00 | 0.00 | 0.00 | 34 | 1002.9 |
| 20260504195003 | 86 | 255 | 1.7 | 7.8 | 0.00 | 0.00 | 0.00 | 35 | 1003.0 |
| 20260504194513 | 86 | 207 | 3.5 | 11.3 | 0.00 | 0.00 | 0.00 | 34 | 1003.0 |
| 20260504194003 | 86 | 206 | 1.7 | 13.9 | 0.00 | 0.00 | 0.00 | 35 | 1003.0 |
| 20260504193508 | 86 | 259 | 4.3 | 13.9 | 0.00 | 0.00 | 0.00 | 34 | 1003.1 |
| 20260504193015 | 86 | 254 | 2.6 | 8.7 | 0.00 | 0.00 | 0.00 | 33 | 1003.2 |
| 20260504192508 | 86 | 137 | 2.6 | 6.1 | 0.00 | 0.00 | 0.00 | 35 | 1003.4 |
| 20260504192007 | 86 | 224 | 2.6 | 6.1 | 0.00 | 0.00 | 0.00 | 36 | 1003.4 |
| 20260504191527 | 85 | 263 | 0.9 | 6.1 | 0.00 | 0.00 | 0.00 | 36 | 1003.4 |
| 20260504191006 | 85 | 275 | 0.9 | 7.8 | 0.00 | 0.00 | 0.00 | 35 | 1003.5 |
| 20260504190504 | 85 | 213 | 1.7 | 7.8 | 0.00 | 0.00 | 0.00 | 36 | 1003.5 |
| 20260504190016 | 85 | 304 | 2.6 | 7.0 | 0.00 | 0.00 | 0.00 | 36 | 1003.5 |
| 20260504185507 | 85 | 265 | 1.7 | 7.0 | 0.00 | 0.00 | 0.00 | 36 | 1003.6 |
| 20260504185007 | 85 | 261 | 1.7 | 7.0 | 0.00 | 0.00 | 0.00 | 35 | 1003.6 |
| 20260504184517 | 84 | 272 | 2.6 | 7.0 | 0.00 | 0.00 | 0.00 | 38 | 1003.6 |
| 20260504184007 | 84 | 285 | 1.7 | 7.8 | 0.00 | 0.00 | 0.00 | 37 | 1003.5 |
| 20260504183506 | 84 | 236 | 1.7 | 7.8 | 0.00 | 0.00 | 0.00 | 37 | 1003.7 |
| 20260504183017 | 84 | 232 | 2.6 | 7.8 | 0.00 | 0.00 | 0.00 | 36 | 1003.7 |
| 20260504182508 | 84 | 9 | 2.6 | 7.8 | 0.00 | 0.00 | 0.00 | 37 | 1003.7 |
| 20260504182009 | 83 | 272 | 1.7 | 7.8 | 0.00 | 0.00 | 0.00 | 37 | 1003.9 |
| 20260504181521 | 83 | 290 | 3.5 | 7.8 | 0.00 | 0.00 | 0.00 | 38 | 1004.0 |
| 20260504181007 | 83 | 138 | 0.9 | 7.0 | 0.00 | 0.00 | 0.00 | 39 | 1004.0 |
| 20260504180507 | 83 | 298 | 1.7 | 7.0 | 0.00 | 0.00 | 0.00 | 38 | 1004.2 |
| 20260504180020 | 82 | 151 | 0.9 | 6.1 | 0.00 | 0.00 | 0.00 | 39 | 1004.2 |
| 20260504175507 | 82 | 258 | 0.9 | 6.1 | 0.00 | 0.00 | 0.00 | 39 | 1004.2 |
| 20260504175006 | 81 | 249 | 0.9 | 7.0 | 0.00 | 0.00 | 0.00 | 41 | 1004.3 |
| 20260504174516 | 81 | 319 | 2.6 | 7.0 | 0.00 | 0.00 | 0.00 | 39 | 1004.2 |
| 20260504174007 | 81 | 259 | 0.9 | 7.0 | 0.00 | 0.00 | 0.00 | 39 | 1004.3 |
| 20260504173506 | 81 | 324 | 1.7 | 7.0 | 0.00 | 0.00 | 0.00 | 39 | 1004.2 |
| 20260504173015 | 81 | 247 | 0.9 | 7.0 | 0.00 | 0.00 | 0.00 | 38 | 1004.2 |
| 20260504172507 | 81 | 223 | 1.7 | 7.0 | 0.00 | 0.00 | 0.00 | 42 | 1004.2 |
| 20260504172008 | 81 | 254 | 0.9 | 7.0 | 0.00 | 0.00 | 0.00 | 41 | 1004.2 |
| 20260504171525 | 80 | 229 | 2.6 | 7.0 | 0.00 | 0.00 | 0.00 | 40 | 1004.3 |
| 20260504171010 | 80 | 242 | 1.7 | 6.1 | 0.00 | 0.00 | 0.00 | 41 | 1004.2 |
| 20260504170506 | 79 | 101 | 0.9 | 10.4 | 0.00 | 0.00 | 0.00 | 42 | 1004.2 |